Location: Plainartige
(45.6866°N, 1.7993°E)
Time: 04:18:35
(UTC+00:00)

Vanguard 1 - Pass Details

Date: 31 May 2022
Orbit: 649 x 3833 km, 34.2° (Epoch: 06 July)

Event Time Altitude Azimuth Distance (km) Brightness Sun altitude
Exits shadow 23:54:36 29° 201° (SSW) 3,256 12.1 -22.4°
Maximum altitude 00:00:38 44° 153° (SSE) 3,204 12.2 -22.4°
Drops below altitude 10° 00:18:18 10° 91° (E) 6,545 14.3 -22.1°
Sets 00:24:21 0° 86° (E) 7,827 14.8 -22.0°
